Location: Newark
(49.1000°N, 0.4667°W)
Time: 10:51:42
(UTC+00:00)

BEESAT 3 - Pass Details

Date: 11 July 2020
Orbit: 482 x 522 km, 64.9° (Epoch: 10 August)

Event Time Altitude Azimuth Distance (km) Brightness Sun altitude
Rises 01:27:43 0° 325° (NW) 2,659 ? -16.6°
Reaches altitude 10° 01:31:18 10° 358° (N) 1,763 ? -16.4°
Maximum altitude 01:32:45 12° 20° (NNE) 1,655 ? -16.3°
Drops below altitude 10° 01:34:11 10° 42° (NE) 1,755 ? -16.3°
Sets 01:37:44 0° 76° (ENE) 2,631 ? -16.0°
